Погода в Ходутке

Погода в Ходутке : погода сейчас, прогноз погоды и архив. Всё, что Вы хотите узнать о погоде в Ходутке!

Поиск расширенной информации на нашем сайте:

Другие новости

Новости СМИ2

Главная страница сайта

Новости сайта

03.07.2017

Напоминаем, что на нашем специализированном сайте Метеоцентр.Азия вы можете получить высокодетализированные автоматические прогнозы погоды по пунктам России, СНГ и мира в авиационном формате (включающие направление и скорость ветра, видимость, явления погоды, количество и форму облачности, нижнюю и верхнюю границу облачности).


Погода в Ходутке - сегодня

Время (UTC), дата Ветер
(°,м/с) 
Видим.   Явления Облачность Т
(°С)
Тd
(°С)
f(%) Тe
(°С)
Pmin
(гПа)
dP
(гПа)
Po
(мм)
O2
(г/м3)
Тmin Tmax R s Состояние
почвы
18 19.04.18 330 (СЗ) 6{11}  20000 м    ясно 
-1.6 -5.8 73 -5  1003.7  751  305           
00 20.04.18 290 (З) 3{12}  20000 м    ясно 
+1.8 -5.4 59 1005.8  0.7  752  302           
03 20.04.18 330 (СЗ) 4{10}  20000 м    ясно 
+3.1 -5 55 +1  1006.1  0.3  753  300           
06 20.04.18 290 (З) 4{10}  20000 м    6/0 верхняя 
[Ci fib]
+2 -5.3 58 1006.8  0.7  753  302           
15 20.04.18 020 (С) 3{12}  20000 м    ясно 
-2.9 -8.7 64 -5  1008.5  0.9  754  308           
18 20.04.18 200 (Ю) 20000 м    ясно 
-2.3 -8.7 61 -4  1008.8  0.3  755  308           
00 21.04.18 330 (СЗ) 20000 м    ясно 
+1.8 -7 52 1008.7  -0.4  755  303           
03 21.04.18 260 (З) 20000 м    ясно 
+2.6 -5.8 54 +1  1008.5  0.1  754  302           
06 21.04.18 280 (З) 20000 м    8/3 1000 м средняя, верхняя 
[Sc|Ac trans|Ci fib]
+2.5 -5.3 56 +1  1007.8  -0.7  754  302           
12 21.04.18 220 (ЮЗ) 20000 м    10/10 600 м 
[Sc]
+0.3 -1.3 89 +1  1006.4  -1.2  753  303           
15 21.04.18 тихо ()   20000 м    10/10 600 м 
[Sc]
-0.9 -1.4 96 -1  1004.5  -1.9  751  304           
18 21.04.18 050 (СВ) 2000 м  ливневой снег  10/10 600 м кучево-дожд. 
[Cb cap]
-1.1 -1.1 100 -3  1002.4  -2.1  750  303           
21 21.04.18 050 (СВ) 7-10{13}  2000 м  ливневой снег  10/10 600 м кучево-дожд. 
[Cb cap]
-0.6 -1.3 95 -5  1000.6  -1.7  749  302  -1.3    0.6  50  неравномерный
мокрый или
старый снег
100% 
03 22.04.18 080 (В) 20000 м  {ливн. осадки}  10/10 600 м 
[Sc]
+1 -1.8 82 -2  999  -0.4  747  300           
06 22.04.18 330 (СЗ) 20000 м  {ливн. осадки}  10/10 600 м 
[Sc]
+3.2 -4.7 56 +2  999.6  0.6  748  298           
12 22.04.18 300 (СЗ) 20000 м    6/6 600 м 
[Sc]
-1.1 -5.9 70 -3  1003.1  1.3  750  304           
15 22.04.18 310 (СЗ) 6{12}  20000 м    ясно 
-2 -6.4 72 -6  1004.2  1.2  751  306           
18 22.04.18 310 (СЗ) 7-12{16}  20000 м    ясно 
-1.5 -7.4 64 -6  1003.9  -0.4  751  305           
21 22.04.18 330 (СЗ) 10-17{18}  20000 м    ясно 
-0.2 -6.6 62 -5  1004.1  0.2  751  304  -2      49  неравномерный
мокрый или
старый снег
100% 
06 23.04.18 330 (СЗ) 4{15}  20000 м    8/3 1000 м средняя, верхняя 
[Sc|Ac trans|Ci fib]
+1.9 -4.9 61 1005.9  1.7  752  302           
09 23.04.18 330 (СЗ) 5-10{11}  20000 м    3/3 1000 м 
[Sc]
+0.1 -5.1 68 -3  1007.6  1.6  754  304    +2.3       
12 23.04.18 310 (СЗ) 5{11}  20000 м    ясно 
-0.6 -6 67 -4  1008.2  0.6  754  305           
15 23.04.18 320 (СЗ) 6-11{12}  20000 м    ясно 
-0.9 -5.8 69 -5  1008.1  -0.1  754  305           
18 23.04.18 320 (СЗ) 8-13{14}  20000 м    ясно 
-0.7 -6.5 65 -5  1007.7  -0.4  754  305           
21 23.04.18 330 (СЗ) 9-15{17}  20000 м    8/3 600 м средняя 
[Sc|Ac trans]
+0.2 -5.2 67 -4  1007.7  754  304  -1.1      48  неравномерный
мокрый или
старый снег
100% 
Время (UTC), дата Ветер
(°,м/с) 
Видим.   Явления Облачность Т
(°С)
Тd
(°С)
f(%) Тe
(°С)
Pmin
(гПа)
dP
(гПа)
Po
(мм)
O2
(г/м3)
Тmin Tmax R s Состояние
почвы

Для получения пояснительной информации подведите курсор к названию столбца.

ПОГОДА в Ходутке - архив

Всё, что Вы хотите узнать о погоде в Ходутке - удобно и подробно!

Выберите нужную дату (начиная с 1 января 2015* года) и нажмите кнопку "Найти".
Будут отображены архивные сводки погоды по пункту Ходутка, начиная с указанной даты.


Отображать данные в формате CSV (для использования в таблицах Excel)


Внимание! Наш архив погоды предназначен исключительно для личного некоммерческого использования в познавательных целях. Если Вам необходимы официальные справки о состоянии погоды (для производственных, юридических, коммерческих и т.п. целей), обращайтесь в органы Росгидромета.

*Примечание: данная дата относится к архиву по метеостанциям СССР (Россия, СНГ, Балтия).
Архив по метеостанциям Зарубежной Европы и Азии (кроме Китая) хранится 10 дней, по другим регионам земного шара (Китай, Африка, Америка, Австралия, Океания) - 1 день.

Ходутка - район местоположения метеостанции


Название, широта, долгота, высота метеостанции:
Ходутка 51.8°ш. 158°д. 18 м над ур. моря [Российская Федерация]

Дополнительная информация

В oтличие oт бoльшинства пoгoдных сайтoв мы публикуем пoдрoбную метеoинфoрмацию в детальнoм прoфессиoнальнoм фoрмате.

Характеристики температуры и влажнoсти вoздуха измеряются на высoте 2 м в тени вдали oт зданий и деревьев.
Скoрoсть ветра измеряется на высoте 10 м (на урoвне рoста челoвека скoрoсть ветра ниже в 1.5-2 раза). Если метеoстанция нахoдится в гoрoде или в лесу, тo скoрoсть ветра занижена на 2-4 м/с пo сравнению с oткрытым местoм. Скoрoсть ветра над акватoриями крупных рек и oзёр, а также на вершинах хoлмoв на 2-5 м/с выше, чем в oбычных услoвиях.
Атмoсфернoе давление в разных тoчках местнoсти мoжет значительнo oтличаться oт давления на метеoстанции, в зависимoсти oт услoвий рельефа (при пoдъёме на 10 м давление пoнижается примернo на 1 мм рт.ст.).